Weather History for KPSK - February, 2013

Change the Weather History Date:

Tuesday, February 26, 2013

  Actual Average (KBCB) Record (KBCB)
Temperature  
Mean Temperature 34 °F 36 °F  
Max Temperature 37 °F 48 °F 73 °F (2000)
Min Temperature 30 °F 25 °F 2 °F (1967)
Degree Days  
Heating Degree Days 32 28  
Month to date heating degree days 804  
Since 1 July heating degree days 3991  
Cooling Degree Days 0 0  
Month to date cooling degree days 0  
Year to date cooling degree days 0  
Moisture  
Dew Point 30 °F    
Average Humidity 88    
Maximum Humidity 100    
Minimum Humidity 60    
Precipitation  
Precipitation 0.00 in 0.10 in 1.25 in (1979)
Month to date precipitation 2.62  
Year to date precipitation 5.70  
Snow  
Snow 0.00 in - - ()
Month to date snowfall  
Since 1 July snowfall  
Snow Depth -    
Sea Level Pressure  
Sea Level Pressure 29.82 in    
Wind  
Wind Speed 7 mph (East)    
Max Wind Speed 17 mph    
Max Gust Speed 22 mph    
Visibility 6 miles    
Events Snow    
T = Trace of Precipitation, MM = Missing Value Source: NWS Daily Summary

Daily Weather History Graph

Daily Weather History Graph

Search for Another Location

Airport or City:

Trip Planner

Search our weather history database for the weather conditions in past years. The results will help you decide how hot, cold, wet, or windy it might be!

Date:

Astronomy

Feb. 26, 2013 Rise Set
Actual Time 6:57 AM EST 6:14 PM EST
Civil Twilight 6:31 AM EST 6:40 PM EST
Nautical Twilight 6:01 AM EST 7:10 PM EST
Astronomical Twilight 5:31 AM EST 7:40 PM EST
Moon 7:26 PM EST (2/26) 7:01 AM EST (2/26)
Length of Visible Light 12h 09m
Length of Day
11h 16m
Full, 99% of the Moon is Illuminated
Feb 26
Full
Mar 4
Last Quarter
Mar 11
New
Mar 19
First Quarter
Mar 27
Full

Hourly Weather History & Observations

Time (EST) Temp. Windchill Dew Point Humidity Pressure Visibility Wind Dir Wind Speed Gust Speed Precip Events Conditions
12:15 AM 32.0 °F 25.6 °F 19.4 °F 60% 30.10 in 10.0 mi East 6.9 mph - N/A   Overcast
12:35 AM 32.0 °F 24.8 °F 21.2 °F 64% 30.11 in 10.0 mi East 8.1 mph - N/A   Overcast
12:55 AM 32.0 °F 25.6 °F 21.2 °F 64% 30.10 in 10.0 mi ESE 6.9 mph - N/A   Overcast
1:15 AM 32.0 °F 26.4 °F 21.2 °F 64% 30.10 in 10.0 mi East 5.8 mph - N/A   Overcast
1:35 AM 32.0 °F 26.4 °F 21.2 °F 64% 30.08 in 10.0 mi East 5.8 mph - N/A   Overcast
1:55 AM 32.0 °F 27.5 °F 21.2 °F 64% 30.08 in 10.0 mi East 4.6 mph - N/A   Overcast
2:15 AM 32.0 °F 26.4 °F 21.2 °F 64% 30.06 in 10.0 mi East 5.8 mph - N/A   Overcast
2:35 AM 32.0 °F 25.6 °F 21.2 °F 64% 30.06 in 10.0 mi East 6.9 mph - N/A   Overcast
2:55 AM 32.0 °F 24.8 °F 21.2 °F 64% 30.04 in 10.0 mi East 8.1 mph - N/A   Overcast
3:15 AM 32.0 °F 24.8 °F 21.2 °F 64% 30.04 in 10.0 mi East 8.1 mph - N/A   Overcast
3:35 AM 32.0 °F 24.8 °F 21.2 °F 64% 30.03 in 10.0 mi East 8.1 mph - N/A   Overcast
3:55 AM 32.0 °F 24.8 °F 21.2 °F 64% 30.04 in 10.0 mi East 8.1 mph - N/A   Overcast
4:15 AM 32.0 °F 24.2 °F 21.2 °F 64% 30.03 in 10.0 mi East 9.2 mph - N/A   Overcast
4:35 AM 32.0 °F 24.8 °F 21.2 °F 64% 30.01 in 10.0 mi East 8.1 mph - N/A   Overcast
4:55 AM 32.0 °F 24.2 °F 21.2 °F 64% 30.02 in 10.0 mi East 9.2 mph - N/A   Overcast
5:15 AM 32.0 °F 26.4 °F 21.2 °F 64% 30.04 in 10.0 mi East 5.8 mph - N/A   Overcast
5:35 AM 32.0 °F 24.2 °F 21.2 °F 64% 30.02 in 10.0 mi East 9.2 mph - N/A   Overcast
5:55 AM 32.0 °F 24.2 °F 21.2 °F 64% 30.03 in 10.0 mi ESE 9.2 mph - N/A   Overcast
6:15 AM 32.0 °F 23.0 °F 21.2 °F 64% 30.00 in 10.0 mi East 11.5 mph 17.3 mph N/A   Overcast
6:35 AM 32.0 °F 23.6 °F 21.2 °F 64% 29.99 in 10.0 mi East 10.4 mph 17.3 mph N/A   Overcast
6:55 AM 32.0 °F 20.8 °F 21.2 °F 64% 29.98 in 10.0 mi East 17.3 mph 21.9 mph N/A   Overcast
7:15 AM 32.0 °F 22.5 °F 23.0 °F 69% 30.00 in 10.0 mi ESE 12.7 mph 17.3 mph N/A   Overcast
7:35 AM 30.2 °F 20.2 °F 26.6 °F 86% 29.98 in 5.0 mi East 12.7 mph 19.6 mph N/A   Overcast
7:55 AM 30.2 °F 18.9 °F 26.6 °F 86% 29.99 in 5.0 mi East 16.1 mph 20.7 mph N/A   Overcast
8:15 AM 30.2 °F 20.8 °F 28.4 °F 93% 29.98 in 4.0 mi East 11.5 mph - N/A   Overcast
8:35 AM 30.2 °F 21.3 °F 28.4 °F 93% 29.96 in 5.0 mi ENE 10.4 mph - N/A   Overcast
8:55 AM 30.2 °F 21.3 °F 28.4 °F 93% 29.95 in 5.0 mi ENE 10.4 mph - N/A   Overcast
9:15 AM 30.2 °F 21.9 °F 28.4 °F 93% 29.95 in 4.0 mi East 9.2 mph - N/A   Overcast
9:35 AM 30.2 °F 21.9 °F 28.4 °F 93% 29.93 in 4.0 mi East 9.2 mph - N/A   Overcast
9:55 AM 30.2 °F 21.9 °F 30.2 °F 100% 29.91 in 4.0 mi East 9.2 mph - N/A   Overcast
10:15 AM 30.2 °F 21.9 °F 30.2 °F 100% 29.90 in 5.0 mi East 9.2 mph - N/A   Overcast
10:35 AM 32.0 °F 24.2 °F 30.2 °F 93% 29.87 in 1.8 mi East 9.2 mph - N/A   Overcast
10:55 AM 32.0 °F 24.2 °F 30.2 °F 93% 29.85 in 2.5 mi East 9.2 mph - N/A   Overcast
11:15 AM 32.0 °F 24.8 °F 32.0 °F 100% 29.83 in 3.0 mi East 8.1 mph - N/A   Overcast
11:35 AM 32.0 °F 24.8 °F 32.0 °F 100% 29.82 in 1.8 mi East 8.1 mph - N/A Snow Light Snow
11:55 AM 33.8 °F 27.7 °F 33.8 °F 100% 29.81 in 2.0 mi ENE 6.9 mph - N/A   Overcast
12:15 PM 33.8 °F 29.6 °F 33.8 °F 100% 29.80 in 2.0 mi East 4.6 mph - N/A   Overcast
12:35 PM 33.8 °F 30.8 °F 33.8 °F 100% 29.79 in 1.8 mi East 3.5 mph - N/A   Overcast
12:55 PM 33.8 °F 29.6 °F 33.8 °F 100% 29.77 in 3.0 mi East 4.6 mph - N/A   Overcast
1:15 PM 33.8 °F 28.6 °F 33.8 °F 100% 29.75 in 2.5 mi East 5.8 mph - N/A   Overcast
1:35 PM 33.8 °F 28.6 °F 33.8 °F 100% 29.72 in 2.0 mi East 5.8 mph - N/A   Overcast
1:55 PM 33.8 °F 27.7 °F 33.8 °F 100% 29.70 in 2.0 mi East 6.9 mph - N/A   Overcast
2:15 PM 33.8 °F 28.6 °F 33.8 °F 100% 29.69 in 2.5 mi East 5.8 mph - N/A   Overcast
2:35 PM 35.6 °F 30.7 °F 35.6 °F 100% 29.67 in 2.0 mi ENE 5.8 mph - N/A Snow Light Snow
2:55 PM 35.6 °F 29.9 °F 35.6 °F 100% 29.66 in 2.5 mi East 6.9 mph - N/A   Overcast
3:15 PM 35.6 °F 28.6 °F 35.6 °F 100% 29.63 in 2.5 mi East 9.2 mph - N/A   Overcast
3:35 PM 35.6 °F 29.9 °F 35.6 °F 100% 29.64 in 1.8 mi East 6.9 mph - N/A Snow Light Snow
3:55 PM 35.6 °F 32.8 °F 35.6 °F 100% 29.65 in 1.8 mi East 3.5 mph - N/A   Overcast
4:15 PM 35.6 °F 30.7 °F 35.6 °F 100% 29.64 in 3.0 mi East 5.8 mph - N/A Snow Light Snow
4:35 PM 35.6 °F 29.9 °F 35.6 °F 100% 29.63 in 5.0 mi ENE 6.9 mph - N/A   Overcast
4:55 PM 35.6 °F 29.9 °F 35.6 °F 100% 29.62 in 4.0 mi ENE 6.9 mph - N/A   Overcast
5:15 PM 37.4 °F 31.4 °F 37.4 °F 100% 29.61 in 4.0 mi ENE 8.1 mph - N/A   Overcast
5:35 PM 37.4 °F 31.4 °F 37.4 °F 100% 29.60 in 3.0 mi East 8.1 mph - N/A   Overcast
5:55 PM 37.4 °F 31.4 °F 37.4 °F 100% 29.59 in 4.0 mi ENE 8.1 mph - N/A   Overcast
6:15 PM 37.4 °F 33.8 °F 37.4 °F 100% 29.60 in 5.0 mi East 4.6 mph - N/A   Overcast
6:35 PM 37.4 °F - 37.4 °F 100% 29.62 in 5.0 mi Calm Calm - N/A   Overcast
6:55 PM 37.4 °F 33.8 °F 37.4 °F 100% 29.59 in 4.0 mi East 4.6 mph - N/A   Overcast
7:15 PM 37.4 °F 32.8 °F 37.4 °F 100% 29.60 in 4.0 mi East 5.8 mph - N/A   Overcast
7:35 PM 37.4 °F 34.9 °F 37.4 °F 100% 29.61 in 5.0 mi ENE 3.5 mph - N/A   Overcast
7:55 PM 37.4 °F - 37.4 °F 100% 29.63 in 5.0 mi Calm Calm - N/A   Overcast
8:15 PM 37.4 °F - 37.4 °F 100% 29.62 in 4.0 mi Calm Calm - N/A   Overcast
8:35 PM 37.4 °F - 37.4 °F 100% 29.62 in 4.0 mi Calm Calm - N/A   Overcast
8:55 PM 37.4 °F 34.9 °F 37.4 °F 100% 29.62 in 3.0 mi East 3.5 mph - N/A   Overcast
9:15 PM 37.4 °F - 37.4 °F 100% 29.62 in 2.5 mi Calm Calm - N/A   Overcast
9:35 PM 37.4 °F - 37.4 °F 100% 29.62 in 2.0 mi Calm Calm - N/A   Overcast
9:55 PM 37.4 °F - 37.4 °F 100% 29.63 in 1.5 mi Calm Calm - N/A   Overcast
10:15 PM 37.4 °F - 37.4 °F 100% 29.64 in - Calm Calm - N/A   Overcast
10:35 PM 37.4 °F - 37.4 °F 100% 29.64 in - Calm Calm - N/A   Overcast
10:55 PM 37.4 °F - 37.4 °F 100% 29.63 in - Calm Calm - N/A   Overcast
11:15 PM 37.4 °F - 37.4 °F 100% 29.62 in - Calm Calm - N/A   Overcast
11:55 PM 37.4 °F - 37.4 °F 100% 29.62 in - Calm Calm - N/A   Unknown